When you browse on this site, cookies collect data to enhance your experience and personalize the content and advertising you see.
Visit our Privacy Policy to learn more. By continuing to use the site, you agree to this use of cookies and data.
  • In Czech Republic
  • List of Countries
  • For 7 days
  • Water Temperature
  • Weather Map
  • Weather Widgets
  • user-avatar
    Login

    Hourly Weather Eisenstadt

    Today, 4 June, Thursday

    Time Temperature Precipitation Wind Pressure Humidity
    00:00 +13°C° 0 mm 2 mps 713 mmHg 81%
    01:00 +12°C° 0 mm 3 mps 713 mmHg 78%
    02:00 +11°C° 0 mm 3 mps 712 mmHg 80%
    03:00 +12°C° 0 mm 2 mps 712 mmHg 82%
    04:00 +10°C° 0 mm 2 mps 711 mmHg 84%
    05:00 +13°C° 0 mm 2 mps 711 mmHg 80%
    06:00 +14°C° 0 mm 2 mps 711 mmHg 77%
    07:00 +16°C° 0 mm 2 mps 711 mmHg 72%
    08:00 +18°C° 0 mm 2 mps 711 mmHg 67%
    09:00 +20°C° 0 mm 3 mps 711 mmHg 61%
    10:00 +21°C° 0 mm 3 mps 711 mmHg 55%
    11:00 +22°C° 0 mm 4 mps 711 mmHg 53%
    12:00 +23°C° 0 mm 5 mps 710 mmHg 51%
    13:00 +24°C° 0 mm 6 mps 710 mmHg 49%
    14:00 +23°C° 0 mm 7 mps 710 mmHg 50%
    15:00 +23°C° 0 mm 7 mps 709 mmHg 51%
    16:00 +22°C° 0 mm 8 mps 709 mmHg 51%
    17:00 +21°C° 0 mm 8 mps 708 mmHg 55%
    18:00 +18°C° 0 mm 7 mps 708 mmHg 59%
    19:00 +17°C° 0 mm 7 mps 708 mmHg 63%
    20:00 +16°C° 0 mm 7 mps 708 mmHg 66%
    21:00 +16°C° 0 mm 7 mps 708 mmHg 68%
    22:00 +15°C° 0 mm 7 mps 708 mmHg 71%
    23:00 +15°C° 0 mm 5 mps 708 mmHg 74%

    Tomorrow, 5 June, Friday

    Time Temperature Precipitation Wind Pressure Humidity
    00:00 +14°C° 0 mm 4 mps 708 mmHg 76%
    01:00 +14°C° 0 mm 3 mps 708 mmHg 79%
    02:00 +13°C° 0.1 mm 3 mps 708 mmHg 81%
    03:00 +14°C° 0.1 mm 2 mps 708 mmHg 84%
    04:00 +14°C° 0.1 mm 1 mps 708 mmHg 87%
    05:00 +14°C° 0.8 mm 1 mps 708 mmHg 88%
    06:00 +14°C° 0.8 mm 2 mps 708 mmHg 90%
    07:00 +15°C° 0.8 mm 2 mps 709 mmHg 92%
    08:00 +14°C° 1.4 mm 2 mps 709 mmHg 92%
    09:00 +14°C° 1.4 mm 2 mps 709 mmHg 92%
    10:00 +14°C° 1.4 mm 1 mps 710 mmHg 92%
    11:00 +14°C° 1 mm 1 mps 710 mmHg 92%
    12:00 +14°C° 1 mm 1 mps 710 mmHg 92%
    13:00 +13°C° 1 mm 1 mps 710 mmHg 92%
    14:00 +13°C° 0.3 mm 1 mps 710 mmHg 92%
    15:00 +14°C° 0.3 mm 1 mps 711 mmHg 91%
    16:00 +14°C° 0.3 mm 1 mps 711 mmHg 91%
    17:00 +14°C° 0 mm 1 mps 711 mmHg 90%
    18:00 +14°C° 0 mm 1 mps 711 mmHg 90%
    19:00 +14°C° 0 mm 1 mps 712 mmHg 89%
    20:00 +13°C° 0 mm 1 mps 712 mmHg 90%
    21:00 +13°C° 0 mm 1 mps 713 mmHg 90%
    22:00 +12°C° 0 mm 2 mps 714 mmHg 90%
    23:00 +12°C° 0 mm 1 mps 714 mmHg 89%

    Day after tomorrow, 6 June, Saturday

    Time Temperature Precipitation Wind Pressure Humidity
    00:00 +12°C° 0 mm 1 mps 714 mmHg 88%
    01:00 +12°C° 0 mm 1 mps 715 mmHg 86%
    02:00 +12°C° 0 mm 1 mps 715 mmHg 85%
    03:00 +11°C° 0 mm 0 mps 715 mmHg 84%
    04:00 +10°C° 0 mm 0 mps 715 mmHg 84%
    05:00 +12°C° 0 mm 0 mps 716 mmHg 81%
    06:00 +13°C° 0 mm 0 mps 716 mmHg 79%
    07:00 +16°C° 0 mm 1 mps 717 mmHg 76%
    08:00 +17°C° 0 mm 2 mps 717 mmHg 70%
    09:00 +18°C° 0 mm 3 mps 717 mmHg 64%
    10:00 +20°C° 0 mm 4 mps 717 mmHg 58%
    11:00 +20°C° 0 mm 4 mps 717 mmHg 58%
    12:00 +20°C° 0 mm 4 mps 716 mmHg 59%
    13:00 +21°C° 0 mm 4 mps 716 mmHg 59%
    14:00 +21°C° 0 mm 4 mps 715 mmHg 59%
    15:00 +22°C° 0 mm 4 mps 715 mmHg 59%
    16:00 +22°C° 0 mm 4 mps 715 mmHg 59%
    17:00 +21°C° 0 mm 3 mps 715 mmHg 66%
    18:00 +20°C° 0 mm 3 mps 714 mmHg 73%
    19:00 +19°C° 0 mm 2 mps 714 mmHg 81%
    20:00 +18°C° 0.1 mm 2 mps 715 mmHg 84%
    21:00 +17°C° 0.1 mm 2 mps 715 mmHg 86%
    22:00 +16°C° 0.1 mm 2 mps 715 mmHg 89%
    23:00 +16°C° 0.5 mm 1 mps 715 mmHg 91%

    7 June, Sunday

    Time Temperature Precipitation Wind Pressure Humidity
    00:00 +15°C° 0.5 mm 1 mps 715 mmHg 92%
    01:00 +15°C° 0.5 mm 1 mps 715 mmHg 93%
    02:00 +15°C° 0.6 mm 2 mps 715 mmHg 92%
    03:00 +14°C° 0.6 mm 2 mps 716 mmHg 91%
    04:00 +13°C° 0.6 mm 3 mps 716 mmHg 90%
    05:00 +13°C° 0 mm 3 mps 716 mmHg 87%
    06:00 +14°C° 0 mm 3 mps 717 mmHg 84%
    07:00 +16°C° 0 mm 3 mps 717 mmHg 80%
    08:00 +17°C° 0 mm 3 mps 717 mmHg 76%
    09:00 +17°C° 0 mm 3 mps 718 mmHg 72%
    10:00 +18°C° 0 mm 4 mps 718 mmHg 68%
    11:00 +19°C° 0 mm 3 mps 718 mmHg 66%
    12:00 +20°C° 0 mm 3 mps 718 mmHg 64%
    13:00 +20°C° 0 mm 3 mps 718 mmHg 61%
    14:00 +20°C° 0 mm 3 mps 718 mmHg 62%
    15:00 +20°C° 0 mm 3 mps 718 mmHg 62%
    16:00 +20°C° 0 mm 3 mps 718 mmHg 62%
    17:00 +19°C° 0 mm 3 mps 718 mmHg 67%
    18:00 +18°C° 0 mm 2 mps 718 mmHg 72%
    19:00 +17°C° 0 mm 2 mps 717 mmHg 76%
    20:00 +16°C° 0 mm 2 mps 718 mmHg 78%
    21:00 +15°C° 0 mm 1 mps 718 mmHg 80%
    22:00 +14°C° 0 mm 1 mps 718 mmHg 82%
    23:00 +14°C° 0 mm 1 mps 717 mmHg 82%

    8 June, Monday

    Time Temperature Precipitation Wind Pressure Humidity
    00:00 +14°C° 0 mm 1 mps 717 mmHg 82%
    01:00 +13°C° 0 mm 0 mps 717 mmHg 82%
    02:00 +14°C° 0 mm 1 mps 716 mmHg 83%
    03:00 +14°C° 0 mm 1 mps 716 mmHg 83%
    04:00 +14°C° 0 mm 1 mps 716 mmHg 84%
    05:00 +15°C° 0 mm 1 mps 716 mmHg 83%
    06:00 +16°C° 0 mm 1 mps 716 mmHg 82%
    07:00 +16°C° 0 mm 1 mps 716 mmHg 81%
    08:00 +18°C° 0 mm 2 mps 716 mmHg 78%
    09:00 +19°C° 0 mm 2 mps 717 mmHg 75%
    10:00 +20°C° 0 mm 2 mps 717 mmHg 72%
    11:00 +20°C° 0.5 mm 3 mps 717 mmHg 74%
    12:00 +20°C° 0.5 mm 3 mps 717 mmHg 75%
    13:00 +21°C° 0.5 mm 3 mps 717 mmHg 76%
    14:00 +20°C° 1 mm 2 mps 716 mmHg 78%
    15:00 +20°C° 1 mm 2 mps 716 mmHg 80%
    16:00 +19°C° 1 mm 2 mps 716 mmHg 82%
    17:00 +18°C° 0.8 mm 2 mps 716 mmHg 85%
    18:00 +16°C° 0.8 mm 3 mps 716 mmHg 88%
    19:00 +14°C° 0.8 mm 3 mps 717 mmHg 91%
    20:00 +13°C° 0.1 mm 3 mps 717 mmHg 90%
    21:00 +13°C° 0.1 mm 3 mps 717 mmHg 89%
    22:00 +14°C° 0.1 mm 2 mps 718 mmHg 88%
    23:00 +13°C° 0 mm 2 mps 718 mmHg 89%

    9 June, Tuesday

    Time Temperature Precipitation Wind Pressure Humidity
    00:00 +13°C° 0 mm 2 mps 718 mmHg 89%
    01:00 +13°C° 0 mm 2 mps 718 mmHg 89%
    02:00 +13°C° 0 mm 2 mps 718 mmHg 88%
    03:00 +13°C° 0 mm 2 mps 718 mmHg 88%
    04:00 +13°C° 0 mm 2 mps 718 mmHg 87%
    05:00 +14°C° 0 mm 2 mps 719 mmHg 85%
    06:00 +13°C° 0 mm 3 mps 719 mmHg 83%
    07:00 +14°C° 0 mm 3 mps 719 mmHg 81%
    08:00 +16°C° 0 mm 3 mps 720 mmHg 76%
    09:00 +17°C° 0 mm 3 mps 720 mmHg 70%
    10:00 +18°C° 0 mm 3 mps 720 mmHg 65%
    11:00 +19°C° 0 mm 3 mps 720 mmHg 63%
    12:00 +19°C° 0 mm 3 mps 720 mmHg 62%
    13:00 +20°C° 0 mm 3 mps 720 mmHg 60%
    14:00 +20°C° 0 mm 2 mps 720 mmHg 59%
    15:00 +21°C° 0 mm 2 mps 720 mmHg 58%
    16:00 +21°C° 0 mm 2 mps 720 mmHg 56%
    17:00 +20°C° 0 mm 2 mps 720 mmHg 63%
    18:00 +19°C° 0 mm 2 mps 720 mmHg 69%
    19:00 +19°C° 0 mm 1 mps 720 mmHg 76%
    20:00 +18°C° 0 mm 1 mps 720 mmHg 78%
    21:00 +16°C° 0 mm 1 mps 720 mmHg 80%
    22:00 +15°C° 0 mm 1 mps 721 mmHg 81%
    23:00 +15°C° 0 mm 1 mps 720 mmHg 82%
    Show more